EW8032 Weather Reports


Display with metric or nautical units.
time (UTC)temp
F
wind
direction
speed
MPH
gust
MPH
rain 1hr
in
rain 24hr
in
rain mn
in
humidity
%
barometer
mb
20260506212344 52 265 0.0 0.0 0.02 0.39 0.38 92 1015.0
20260506212327 52 265 0.0 0.0 0.02 0.39 0.38 92 1015.0
20260506212220 52 265 0.0 0.0 0.02 0.40 0.38 92 1015.1
20260506212128 52 265 0.0 0.0 0.02 0.40 0.38 92 1015.0
20260506212034 53 265 0.0 0.0 0.02 0.40 0.38 92 1015.1
20260506211709 53 265 0.0 0.0 0.02 0.40 0.38 92 1015.0
20260506211636 53 265 0.0 0.0 0.02 0.40 0.38 92 1015.0
20260506211230 53 265 0.0 0.0 0.02 0.39 0.37 92 1015.0
20260506211142 53 265 0.0 0.0 0.02 0.39 0.37 92 1014.9
20260506211103 53 265 0.0 0.0 0.02 0.39 0.37 92 1014.9
20260506210747 53 265 0.0 0.0 0.02 0.39 0.37 92 1015.0
20260506210705 53 265 0.0 0.0 0.02 0.39 0.37 91 1014.9
20260506210351 53 265 0.0 0.0 0.02 0.39 0.37 91 1014.8
20260506210023 53 265 0.0 0.0 0.02 0.39 0.37 91 1014.8
20260506210000 53 265 0.0 0.0 0.02 0.39 0.37 91 1014.9
20260506205921 53 265 0.0 0.0 0.02 0.39 0.37 91 1014.8
20260506205833 53 265 0.0 0.0 0.02 0.39 0.37 91 1014.7
20260506205522 54 265 0.0 0.0 0.02 0.40 0.37 90 1014.8
20260506205428 54 265 0.0 0.0 0.02 0.40 0.37 91 1014.7
20260506205052 54 265 0.0 0.0 0.02 0.39 0.37 90 1014.7
20260506204135 54 265 0.0 2.0 0.02 0.39 0.36 90 1014.7
20260506204043 54 265 0.0 2.0 0.02 0.39 0.36 90 1014.7
20260506203954 54 265 0.0 2.0 0.02 0.39 0.36 90 1014.6
20260506203932 54 265 0.0 2.0 0.02 0.39 0.36 90 1014.6
20260506203855 54 265 0.0 2.0 0.02 0.39 0.36 90 1014.5
20260506203754 55 265 1.0 2.0 0.02 0.39 0.36 90 1014.5
20260506203656 55 263 1.0 2.0 0.02 0.39 0.36 90 1014.5
20260506203627 55 251 1.0 2.0 0.02 0.39 0.36 90 1014.5
20260506203505 55 246 0.0 2.0 0.02 0.39 0.36 89 1014.6
20260506203342 55 261 1.0 2.0 0.02 0.40 0.36 89 1014.5
20260506203309 55 264 1.0 2.0 0.02 0.40 0.36 89 1014.5
20260506203203 55 267 1.0 2.0 0.02 0.40 0.36 89 1014.5
20260506203046 55 255 0.0 1.0 0.02 0.40 0.36 89 1014.5
20260506202950 55 255 0.0 1.0 0.02 0.40 0.36 89 1014.4
20260506202935 55 255 0.0 1.0 0.02 0.40 0.36 89 1014.4
20260506202809 55 255 0.0 1.0 0.02 0.39 0.35 89 1014.4
20260506202725 55 255 0.0 3.0 0.02 0.39 0.35 88 1014.4
20260506202113 56 255 0.0 4.0 0.02 0.39 0.35 88 1014.3
20260506202038 56 255 0.0 4.0 0.02 0.39 0.35 88 1014.3
20260506202005 56 255 0.0 4.0 0.02 0.39 0.35 87 1014.3
20260506201837 56 253 2.0 4.0 0.02 0.39 0.35 87 1014.3
20260506201420 56 263 2.0 4.0 0.02 0.39 0.35 87 1014.2
20260506201256 56 273 2.0 4.0 0.02 0.39 0.35 87 1014.1
20260506201105 56 265 1.0 4.0 0.02 0.39 0.35 86 1014.2
20260506200950 56 268 2.0 4.0 0.02 0.39 0.35 86 1014.2
20260506200530 56 288 2.0 3.0 0.02 0.40 0.35 86 1014.1
20260506200349 56 268 0.0 4.0 0.02 0.40 0.35 86 1014.2
20260506200015 56 263 1.0 4.0 0.02 0.39 0.35 85 1014.1
20260506195845 56 257 1.0 5.0 0.02 0.39 0.35 85 1014.2
20260506195741 56 269 2.0 6.0 0.02 0.39 0.35 85 1014.1
20260506194702 56 286 3.0 6.0 0.02 0.39 0.35 84 1014.0
20260506194532 57 281 3.0 6.0 0.02 0.39 0.35 84 1014.1
20260506194344 57 286 3.0 7.0 0.02 0.39 0.35 84 1014.0
20260506194231 57 283 3.0 7.0 0.02 0.39 0.35 84 1014.0
20260506194153 57 282 3.0 7.0 0.02 0.39 0.35 84 1014.0
20260506194005 57 252 3.0 7.0 0.02 0.39 0.35 84 1014.0
20260506193826 57 282 3.0 7.0 0.02 0.39 0.35 83 1014.0
20260506193809 57 278 4.0 7.0 0.02 0.39 0.35 83 1014.0
20260506193629 57 281 4.0 7.0 0.02 0.40 0.35 83 1014.0
20260506193439 57 274 4.0 7.0 0.02 0.40 0.35 83 1014.0
20260506193332 57 267 4.0 7.0 0.02 0.40 0.35 83 1014.0
20260506193247 57 263 4.0 7.0 0.02 0.40 0.35 83 1013.9
20260506193050 58 262 3.0 7.0 0.02 0.39 0.34 83 1013.9
20260506192912 58 269 3.0 7.0 0.02 0.39 0.34 82 1013.9
20260506192854 58 269 3.0 8.0 0.02 0.39 0.34 82 1013.9
20260506192708 58 244 4.0 8.0 0.02 0.39 0.34 82 1013.9
20260506192518 58 273 4.0 8.0 0.02 0.39 0.34 82 1013.9
20260506192430 58 270 4.0 8.0 0.02 0.39 0.34 82 1013.9
20260506192338 58 259 4.0 8.0 0.02 0.39 0.34 81 1013.9
20260506192154 58 270 4.0 8.0 0.02 0.39 0.34 81 1013.9
20260506191958 58 273 3.0 10.0 0.02 0.39 0.34 81 1014.0
20260506191813 58 262 4.0 10.0 0.02 0.39 0.34 80 1014.0
20260506191640 58 252 4.0 10.0 0.02 0.39 0.34 80 1013.9
20260506191206 59 285 6.0 10.0 0.02 0.40 0.34 79 1013.9
20260506191010 59 252 2.0 9.0 0.02 0.39 0.33 79 1013.8
20260506190829 59 235 4.0 9.0 0.02 0.39 0.33 78 1013.7
20260506190635 59 215 5.0 10.0 0.02 0.39 0.33 78 1013.7
20260506190313 59 271 6.0 10.0 0.02 0.39 0.33 77 1013.7
20260506190118 59 286 5.0 10.0 0.02 0.39 0.33 77 1013.7
20260506185928 59 279 5.0 10.0 0.02 0.39 0.33 76 1013.7
20260506185742 59 256 6.0 10.0 0.02 0.39 0.33 76 1013.7
20260506185610 60 265 6.0 9.0 0.02 0.39 0.33 76 1013.7
20260506185519 60 267 5.0 9.0 0.02 0.39 0.33 76 1013.6
20260506185055 60 273 5.0 9.0 0.02 0.39 0.33 76 1013.6
20260506184907 60 257 5.0 7.0 0.02 0.39 0.33 76 1013.6
20260506184857 60 271 5.0 7.0 0.02 0.39 0.33 76 1013.6
20260506184724 60 256 4.0 7.0 0.02 0.39 0.33 77 1013.5
20260506184535 60 259 3.0 8.0 0.02 0.39 0.32 77 1013.5
20260506184437 60 265 4.0 8.0 0.02 0.39 0.32 76 1013.5
20260506184343 60 265 4.0 8.0 0.02 0.39 0.32 76 1013.4
20260506183922 60 253 3.0 8.0 0.02 0.39 0.32 77 1013.4
20260506183754 60 315 4.0 9.0 0.02 0.39 0.32 76 1013.4
20260506183613 60 257 3.0 9.0 0.02 0.39 0.32 77 1013.4
20260506183121 60 269 6.0 9.0 0.02 0.39 0.32 75 1013.4
20260506182946 60 281 5.0 10.0 0.02 0.39 0.32 75 1013.4
20260506182927 60 294 5.0 10.0 0.02 0.39 0.32 75 1013.4
20260506182755 60 273 5.0 10.0 0.02 0.39 0.32 75 1013.3
20260506182614 60 304 4.0 13.0 0.02 0.39 0.31 76 1013.4
20260506182151 60 278 4.0 13.0 0.02 0.39 0.31 75 1013.3
20260506182015 60 300 6.0 15.0 0.02 0.39 0.31 74 1013.4
20260506181948 60 313 6.0 15.0 0.02 0.39 0.31 74 1013.3
20260506181532 60 263 9.0 15.0 0.02 0.39 0.31 74 1013.4
20260506181135 60 271 8.0 15.0 0.02 0.39 0.31 74 1013.3
20260506180622 60 277 9.0 13.0 0.02 0.39 0.31 73 1013.3
20260506180555 60 293 9.0 13.0 0.02 0.39 0.31 73 1013.3
20260506180354 60 243 8.0 14.0 0.02 0.39 0.31 73 1013.3
20260506180219 61 289 6.0 14.0 0.02 0.39 0.31 74 1013.2
20260506180150 61 296 6.0 14.0 0.02 0.39 0.31 74 1013.3
20260506180028 61 265 6.0 14.0 0.02 0.39 0.31 75 1013.3
20260506175843 61 279 7.0 14.0 0.02 0.39 0.31 74 1013.2
20260506175721 61 292 11.0 14.0 0.02 0.39 0.31 73 1013.3
20260506175647 61 279 11.0 14.0 0.02 0.39 0.31 72 1013.3
20260506175505 61 258 5.0 12.0 0.02 0.39 0.31 75 1013.3
20260506175316 61 306 8.0 12.0 0.02 0.39 0.31 74 1013.2
20260506175243 61 321 9.0 12.0 0.02 0.39 0.31 73 1013.3
20260506175118 61 259 9.0 12.0 0.02 0.39 0.31 75 1013.3
20260506174934 61 261 4.0 12.0 0.02 0.39 0.31 75 1013.3
20260506174816 61 293 6.0 11.0 0.02 0.39 0.31 75 1013.3
20260506174744 61 312 6.0 11.0 0.02 0.39 0.31 75 1013.2
20260506174607 61 298 6.0 11.0 0.02 0.39 0.31 75 1013.3
20260506174427 61 300 7.0 11.0 0.02 0.39 0.31 75 1013.3
20260506174358 61 287 5.0 11.0 0.02 0.39 0.31 75 1013.3
20260506174238 60 295 4.0 11.0 0.02 0.39 0.31 76 1013.3
20260506174058 60 253 4.0 11.0 0.02 0.39 0.30 76 1013.2
20260506173939 60 278 6.0 11.0 0.02 0.39 0.30 76 1013.3
20260506173902 60 288 6.0 11.0 0.02 0.39 0.30 76 1013.3
20260506173717 60 315 7.0 11.0 0.02 0.39 0.30 76 1013.3
20260506172712 59 270 4.0 14.0 0.02 0.39 0.30 77 1013.2
20260506172235 59 286 6.0 14.0 0.02 0.39 0.30 77 1013.1
20260506172045 59 303 9.0 14.0 0.02 0.39 0.30 77 1013.2
20260506171928 59 288 6.0 14.0 0.02 0.39 0.30 78 1013.1
20260506171853 59 279 6.0 11.0 0.02 0.39 0.30 79 1013.2
20260506171706 59 292 4.0 9.0 0.02 0.39 0.29 80 1013.3
20260506171526 59 337 5.0 10.0 0.02 0.39 0.29 80 1013.1
20260506171449 59 288 4.0 10.0 0.02 0.39 0.29 81 1013.0
20260506171050 59 295 6.0 11.0 0.02 0.39 0.29 80 1013.1
20260506170929 59 269 5.0 11.0 0.02 0.39 0.29 80 1013.1
20260506170857 59 299 5.0 11.0 0.02 0.39 0.29 80 1013.0
20260506170450 59 298 3.0 11.0 0.02 0.39 0.29 81 1013.0
20260506165654 60 289 3.0 12.0 0.02 0.39 0.28 80 1013.0
20260506165521 60 313 5.0 12.0 0.02 0.39 0.28 79 1013.1
20260506165500 60 312 7.0 12.0 0.02 0.39 0.28 79 1013.0
20260506165325 60 314 7.0 12.0 0.02 0.39 0.28 79 1013.0
20260506165138 60 315 7.0 12.0 0.02 0.39 0.28 78 1012.9
20260506165029 60 277 6.0 12.0 0.02 0.39 0.28 78 1012.9
20260506164940 60 290 6.0 12.0 0.02 0.39 0.28 78 1013.0
20260506164528 60 279 8.0 12.0 0.02 0.39 0.28 77 1012.9
20260506164511 60 277 9.0 12.0 0.02 0.39 0.28 77 1012.9
20260506164338 61 302 6.0 11.0 0.02 0.39 0.28 78 1012.9
20260506163922 60 311 4.0 11.0 0.03 0.39 0.28 80 1012.9
20260506163737 60 318 7.0 12.0 0.02 0.39 0.28 79 1012.9
20260506163224 60 291 7.0 12.0 0.02 0.39 0.28 78 1012.9
20260506163032 60 271 6.0 12.0 0.02 0.39 0.28 78 1012.9
20260506162935 60 289 5.0 14.0 0.02 0.39 0.28 77 1012.9
20260506162842 60 302 5.0 14.0 0.02 0.39 0.28 77 1012.9
20260506162709 60 309 6.0 14.0 0.02 0.39 0.28 77 1012.8
20260506162236 60 261 9.0 16.0 0.03 0.39 0.28 77 1012.8
20260506162054 60 304 8.0 18.0 0.03 0.39 0.28 77 1012.8
20260506161956 60 298 9.0 18.0 0.03 0.39 0.28 77 1012.8
20260506161530 60 288 9.0 18.0 0.02 0.39 0.27 76 1012.8
20260506161340 60 276 10.0 18.0 0.02 0.39 0.27 77 1012.9
20260506161146 60 273 11.0 18.0 0.02 0.39 0.27 76 1012.8
20260506161006 60 257 9.0 14.0 0.02 0.39 0.27 78 1012.9
20260506160910 60 295 9.0 14.0 0.02 0.39 0.27 77 1012.8
20260506160813 60 258 9.0 14.0 0.02 0.39 0.27 77 1012.8
20260506160629 60 238 8.0 16.0 0.02 0.39 0.27 77 1012.8
20260506160444 60 262 10.0 18.0 0.03 0.39 0.27 77 1012.8
20260506160051 61 283 8.0 18.0 0.03 0.39 0.27 78 1012.9
20260506155333 61 249 11.0 16.0 0.02 0.39 0.26 78 1012.8
20260506155317 61 281 11.0 16.0 0.02 0.39 0.26 78 1012.8
20260506155127 60 290 11.0 16.0 0.02 0.39 0.26 78 1012.9
20260506154943 60 261 8.0 16.0 0.02 0.39 0.26 79 1012.8
20260506154855 60 263 9.0 16.0 0.02 0.39 0.26 79 1012.9
20260506154754 60 269 11.0 16.0 0.02 0.39 0.26 79 1012.9
20260506154610 60 265 8.0 16.0 0.03 0.39 0.26 79 1012.8
20260506154444 60 252 10.0 16.0 0.03 0.39 0.26 79 1012.8
20260506154425 60 256 10.0 16.0 0.03 0.39 0.26 79 1012.8
20260506154034 60 267 9.0 17.0 0.03 0.39 0.26 78 1012.8
20260506153951 60 267 9.0 17.0 0.02 0.39 0.25 78 1012.8
20260506153558 61 287 11.0 20.0 0.02 0.39 0.25 77 1012.8
20260506153429 61 271 11.0 20.0 0.02 0.39 0.25 77 1012.8
20260506153404 61 250 11.0 20.0 0.02 0.39 0.25 77 1012.8
20260506153222 61 265 8.0 20.0 0.02 0.39 0.25 77 1012.8
20260506152819 61 293 8.0 14.0 0.03 0.39 0.25 78 1012.9
20260506152641 61 304 10.0 14.0 0.03 0.39 0.25 78 1012.9
20260506152406 61 272 10.0 14.0 0.03 0.39 0.25 79 1012.8
20260506152223 61 290 10.0 14.0 0.02 0.39 0.24 79 1012.9
20260506151708 60 235 8.0 15.0 0.02 0.39 0.24 80 1012.8
20260506151522 60 244 8.0 15.0 0.02 0.39 0.24 79 1012.8
20260506151359 60 285 9.0 15.0 0.02 0.39 0.24 79 1012.9
20260506151331 60 296 9.0 15.0 0.02 0.39 0.24 79 1012.8
20260506151151 60 296 11.0 15.0 0.03 0.39 0.24 78 1012.8
20260506151006 60 281 9.0 14.0 0.03 0.39 0.24 79 1012.8
20260506150941 60 277 8.0 14.0 0.03 0.39 0.24 79 1012.8
20260506150817 60 298 8.0 14.0 0.03 0.39 0.24 80 1012.8
20260506150641 60 260 8.0 14.0 0.03 0.39 0.24 80 1012.8
20260506150221 60 281 10.0 14.0 0.02 0.39 0.24 80 1012.8
20260506145721 60 293 6.0 11.0 0.02 0.39 0.24 82 1012.9
20260506145541 60 242 7.0 11.0 0.02 0.39 0.24 82 1012.9
20260506145424 60 246 7.0 11.0 0.03 0.39 0.24 81 1012.9
20260506145351 60 288 7.0 12.0 0.03 0.39 0.24 81 1012.9
20260506145215 60 232 6.0 13.0 0.03 0.39 0.24 82 1012.9
20260506145037 60 284 5.0 15.0 0.03 0.39 0.24 83 1012.9
20260506145008 60 262 5.0 15.0 0.03 0.39 0.24 83 1012.9
20260506144845 60 256 5.0 15.0 0.03 0.39 0.24 83 1012.9
20260506144454 60 257 11.0 15.0 0.02 0.39 0.23 81 1012.8
20260506144418 60 289 11.0 16.0 0.02 0.39 0.23 81 1012.8
20260506143959 60 269 8.0 16.0 0.02 0.39 0.23 83 1012.9
20260506143933 60 263 8.0 16.0 0.02 0.39 0.23 83 1012.9
20260506143808 60 267 8.0 16.0 0.02 0.39 0.23 82 1012.8
20260506143403 60 260 8.0 16.0 0.03 0.39 0.23 82 1012.9
20260506143322 60 281 8.0 15.0 0.03 0.39 0.23 83 1012.8
20260506143140 60 275 9.0 15.0 0.03 0.39 0.23 84 1012.8
20260506142957 60 283 7.0 14.0 0.03 0.39 0.23 87 1012.8
20260506142935 60 265 6.0 14.0 0.03 0.39 0.23 87 1012.8
20260506142759 60 255 6.0 14.0 0.02 0.39 0.22 87 1012.8
20260506142341 60 234 10.0 14.0 0.02 0.39 0.22 86 1012.8
20260506141440 60 283 8.0 14.0 0.03 0.39 0.22 87 1012.7
20260506141336 59 254 9.0 14.0 0.03 0.39 0.22 87 1012.8
20260506141239 59 263 9.0 14.0 0.03 0.39 0.22 89 1012.7
20260506141056 59 244 6.0 11.0 0.02 0.39 0.21 90 1012.8
20260506140904 59 234 8.0 11.0 0.02 0.39 0.21 91 1012.8
20260506140855 59 237 5.0 11.0 0.02 0.39 0.21 91 1012.8
20260506140703 59 252 3.0 8.0 0.02 0.39 0.21 91 1012.8
20260506140511 58 281 4.0 8.0 0.02 0.39 0.21 90 1012.7
20260506140414 58 231 4.0 8.0 0.02 0.39 0.21 90 1012.7
20260506140319 59 242 5.0 11.0 0.02 0.39 0.21 90 1012.8
20260506135900 59 228 4.0 11.0 0.02 0.39 0.21 92 1012.8
20260506135728 59 246 4.0 11.0 0.02 0.39 0.21 92 1012.7
20260506135545 59 231 6.0 11.0 0.02 0.39 0.21 92 1012.8
20260506135104 58 259 6.0 12.0 0.02 0.39 0.20 94 1012.8
20260506134905 58 281 3.0 12.0 0.02 0.39 0.20 94 1012.8
20260506134733 58 254 5.0 12.0 0.02 0.39 0.20 94 1012.7
20260506134551 58 254 9.0 12.0 0.02 0.39 0.20 95 1012.7
20260506134233 58 261 3.0 12.0 0.02 0.39 0.20 95 1012.8
20260506134047 58 242 4.0 12.0 0.02 0.39 0.20 95 1012.8
20260506133906 57 215 4.0 12.0 0.02 0.39 0.20 96 1012.6
20260506133858 57 215 4.0 12.0 0.02 0.39 0.20 96 1012.6
20260506133717 57 262 3.0 12.0 0.02 0.39 0.20 95 1012.7
20260506133533 57 315 5.0 12.0 0.02 0.38 0.20 95 1012.7
20260506133417 57 286 5.0 12.0 0.02 0.39 0.20 95 1012.7
20260506133336 57 232 4.0 12.0 0.02 0.39 0.20 95 1012.8
20260506133154 57 271 5.0 11.0 0.02 0.39 0.20 95 1012.7
20260506132737 56 234 5.0 11.0 0.02 0.39 0.20 95 1012.8
20260506132235 56 228 4.0 9.0 0.02 0.39 0.20 95 1012.8
20260506132151 56 261 3.0 7.0 0.02 0.39 0.20 95 1012.9
20260506132018 56 245 3.0 7.0 0.02 0.39 0.20 95 1012.8
20260506131602 56 220 4.0 7.0 0.02 0.39 0.20 95 1012.8
20260506131426 56 249 4.0 8.0 0.02 0.39 0.20 95 1012.8
20260506131246 56 229 3.0 8.0 0.02 0.38 0.20 95 1012.9
20260506131130 56 237 3.0 8.0 0.02 0.38 0.19 95 1012.9
20260506130655 56 243 3.0 8.0 0.02 0.39 0.19 95 1012.8
20260506130511 56 211 4.0 8.0 0.02 0.39 0.19 95 1012.8
20260506130442 56 254 4.0 8.0 0.02 0.39 0.19 95 1012.8
20260506130304 56 257 4.0 8.0 0.02 0.39 0.19 95 1012.8
20260506130121 56 249 4.0 8.0 0.02 0.39 0.19 95 1012.8
20260506130000 56 239 5.0 8.0 0.02 0.39 0.19 95 1012.8
20260506125530 56 232 3.0 7.0 0.02 0.39 0.19 96 1012.8
20260506125356 56 281 3.0 7.0 0.02 0.39 0.19 96 1012.7
20260506125322 56 217 3.0 7.0 0.02 0.39 0.19 96 1012.7
20260506125210 56 200 4.0 7.0 0.02 0.39 0.19 96 1012.7
20260506125019 56 242 3.0 7.0 0.02 0.39 0.19 96 1012.7
20260506124622 56 219 2.0 7.0 0.02 0.39 0.19 97 1012.7
20260506124429 56 202 3.0 7.0 0.02 0.39 0.18 96 1012.7
20260506124250 56 286 3.0 7.0 0.02 0.39 0.18 96 1012.6
20260506124217 56 236 3.0 10.0 0.02 0.39 0.18 96 1012.6
20260506124051 56 244 3.0 10.0 0.02 0.39 0.18 96 1012.6
20260506123539 56 235 3.0 11.0 0.02 0.39 0.18 96 1012.6
20260506123506 56 242 3.0 11.0 0.02 0.39 0.18 96 1012.6
20260506123315 56 254 5.0 11.0 0.02 0.39 0.18 96 1012.6
20260506123144 56 250 4.0 11.0 0.02 0.39 0.18 96 1012.6
20260506123107 56 252 4.0 11.0 0.02 0.39 0.18 96 1012.7
20260506122950 56 273 5.0 11.0 0.02 0.39 0.18 96 1012.7
20260506122754 56 306 7.0 11.0 0.02 0.39 0.18 96 1012.7
20260506122641 56 281 6.0 10.0 0.02 0.39 0.18 96 1012.7
20260506122611 56 273 5.0 9.0 0.02 0.39 0.18 95 1012.8
20260506122413 56 254 1.0 7.0 0.02 0.39 0.18 95 1012.6
20260506122247 56 239 1.0 6.0 0.02 0.39 0.18 95 1012.4
20260506122214 56 190 1.0 6.0 0.02 0.39 0.17 96 1012.4
20260506122124 56 190 1.0 6.0 0.02 0.39 0.17 96 1012.5
20260506121932 56 201 2.0 6.0 0.02 0.39 0.17 96 1012.5
20260506121803 56 279 0.0 6.0 0.02 0.39 0.17 95 1012.5
20260506121439 56 248 3.0 8.0 0.02 0.39 0.17 95 1012.6
20260506120417 56 237 3.0 8.0 0.02 0.39 0.17 95 1012.6
20260506120258 56 267 6.0 8.0 0.02 0.39 0.17 95 1012.5
20260506120113 56 225 4.0 11.0 0.02 0.39 0.17 95 1012.6
20260506115945 56 273 3.0 11.0 0.02 0.39 0.17 95 1012.7
20260506115849 56 252 3.0 11.0 0.02 0.39 0.17 95 1012.7
20260506115749 57 228 4.0 11.0 0.02 0.39 0.17 95 1012.7
20260506115553 57 238 3.0 11.0 0.02 0.39 0.17 95 1012.6
20260506115421 57 246 6.0 11.0 0.02 0.39 0.17 95 1012.7
20260506115218 57 286 3.0 9.0 0.02 0.39 0.17 96 1012.7
20260506115030 56 281 5.0 9.0 0.02 0.39 0.17 96 1012.6
20260506114932 56 243 5.0 9.0 0.02 0.39 0.17 96 1012.6
20260506114825 56 246 4.0 9.0 0.02 0.39 0.17 96 1012.6
20260506114640 56 248 4.0 7.0 0.02 0.39 0.17 96 1012.6
20260506114450 57 236 3.0 6.0 0.02 0.39 0.17 97 1012.6
20260506114301 57 246 3.0 7.0 0.02 0.39 0.17 97 1012.5
20260506114121 57 224 2.0 7.0 0.02 0.39 0.17 98 1012.5
20260506114031 57 248 2.0 7.0 0.02 0.39 0.17 98 1012.5
20260506113937 57 228 2.0 7.0 0.02 0.39 0.17 98 1012.6
20260506113749 56 251 3.0 7.0 0.02 0.39 0.17 97 1012.5
20260506113600 56 234 4.0 7.0 0.02 0.39 0.17 97 1012.6
20260506113011 56 243 4.0 7.0 0.02 0.39 0.17 97 1012.6
20260506112918 56 266 4.0 5.0 0.02 0.39 0.17 97 1012.6
20260506112411 56 223 3.0 4.0 0.02 0.39 0.17 98 1012.8
20260506112232 56 238 3.0 7.0 0.01 0.39 0.16 98 1012.7
20260506111827 56 221 3.0 7.0 0.01 0.39 0.16 98 1012.7
20260506111658 55 232 3.0 7.0 0.02 0.39 0.16 98 1012.7
20260506111608 55 229 2.0 7.0 0.02 0.39 0.16 97 1012.7
20260506111505 55 234 4.0 7.0 0.02 0.39 0.16 98 1012.7
20260506111340 56 240 3.0 7.0 0.02 0.39 0.16 98 1012.7
20260506111148 55 237 3.0 7.0 0.02 0.39 0.16 98 1012.7
20260506111005 55 216 5.0 8.0 0.02 0.39 0.16 98 1012.7
20260506110825 55 236 4.0 8.0 0.02 0.39 0.16 98 1012.7
20260506110730 55 238 3.0 8.0 0.02 0.39 0.16 98 1012.6
20260506110628 55 226 3.0 8.0 0.02 0.39 0.16 98 1012.7
20260506110445 55 252 4.0 8.0 0.02 0.39 0.16 98 1012.6
20260506110255 55 247 2.0 8.0 0.02 0.39 0.16 98 1012.6
20260506110105 55 233 4.0 8.0 0.02 0.39 0.16 98 1012.7
20260506105937 55 242 2.0 8.0 0.02 0.39 0.16 98 1012.7
20260506105843 55 234 4.0 8.0 0.02 0.39 0.16 97 1012.7
20260506105356 55 237 4.0 8.0 0.02 0.40 0.16 97 1012.6
20260506104250 54 231 3.0 5.0 0.02 0.39 0.15 97 1012.7
20260506104214 54 226 3.0 5.0 0.02 0.39 0.15 97 1012.7
20260506104147 54 226 3.0 5.0 0.02 0.39 0.15 97 1012.6
20260506104012 54 257 3.0 5.0 0.02 0.39 0.15 97 1012.7
20260506103832 54 225 3.0 6.0 0.02 0.39 0.15 97 1012.7
20260506103713 55 225 4.0 6.0 0.02 0.39 0.15 97 1012.7
20260506103633 55 225 4.0 9.0 0.02 0.39 0.15 97 1012.7
20260506103609 55 225 4.0 9.0 0.02 0.39 0.15 97 1012.7
20260506103536 55 225 4.0 9.0 0.02 0.39 0.15 97 1012.7
20260506103441 55 236 4.0 9.0 0.02 0.40 0.15 97 1012.8
20260506103334 55 259 6.0 9.0 0.02 0.40 0.15 97 1012.7
20260506103302 55 245 6.0 9.0 0.02 0.40 0.15 97 1012.8
20260506103126 55 269 7.0 9.0 0.02 0.40 0.15 97 1012.9
20260506102936 55 256 2.0 7.0 0.02 0.40 0.15 97 1012.8
20260506102903 55 265 0.0 6.0 0.02 0.40 0.15 97 1012.7
20260506102735 55 307 1.0 5.0 0.02 0.40 0.15 97 1012.6
20260506102311 55 229 2.0 6.0 0.02 0.40 0.15 97 1012.8
20260506102238 55 218 2.0 6.0 0.02 0.40 0.15 97 1012.7
20260506102102 55 221 3.0 6.0 0.02 0.40 0.15 97 1012.6
20260506101930 55 214 3.0 6.0 0.01 0.39 0.14 97 1012.6
20260506101902 55 262 3.0 6.0 0.01 0.39 0.14 97 1012.6
20260506101732 55 238 4.0 6.0 0.01 0.39 0.14 97 1012.5
20260506101553 55 225 3.0 6.0 0.01 0.39 0.14 97 1012.6
20260506101444 55 220 3.0 12.0 0.02 0.39 0.14 97 1012.5
20260506101413 55 221 3.0 12.0 0.02 0.39 0.14 97 1012.5
20260506101223 55 232 4.0 12.0 0.02 0.40 0.14 97 1012.6
20260506101049 55 220 3.0 14.0 0.02 0.40 0.14 97 1012.6
20260506101019 55 229 3.0 14.0 0.02 0.40 0.14 97 1012.4
20260506100843 55 217 3.0 14.0 0.02 0.40 0.14 97 1012.5
20260506100700 55 207 6.0 14.0 0.02 0.40 0.14 97 1012.5
20260506100543 55 272 5.0 14.0 0.02 0.40 0.14 97 1012.5
20260506100104 55 221 7.0 14.0 0.02 0.40 0.14 97 1012.5
20260506095915 55 231 3.0 9.0 0.02 0.40 0.14 97 1012.4
20260506095855 55 234 5.0 9.0 0.02 0.40 0.14 97 1012.4
20260506095709 55 240 5.0 9.0 0.02 0.40 0.14 97 1012.4
20260506095536 55 215 4.0 5.0 0.02 0.40 0.14 97 1012.4
20260506095435 55 225 3.0 7.0 0.02 0.40 0.14 97 1012.3
20260506095349 55 232 3.0 7.0 0.02 0.40 0.14 97 1012.4
20260506095155 55 240 3.0 7.0 0.02 0.40 0.14 97 1012.3
20260506094426 55 232 3.0 7.0 0.01 0.40 0.13 97 1012.2
20260506094240 55 230 4.0 7.0 0.01 0.40 0.13 97 1012.2
20260506094136 55 296 4.0 6.0 0.01 0.40 0.13 97 1012.3
20260506094029 55 249 4.0 6.0 0.01 0.40 0.13 97 1012.1
20260506093855 55 217 3.0 8.0 0.01 0.40 0.13 97 1012.2
20260506093715 55 245 3.0 8.0 0.01 0.40 0.13 97 1012.1
20260506093536 55 211 4.0 8.0 0.01 0.40 0.13 97 1012.0
20260506093405 55 211 3.0 8.0 0.01 0.40 0.13 97 1012.0
20260506093309 55 225 4.0 8.0 0.01 0.40 0.13 97 1012.0
20260506093214 55 206 4.0 8.0 0.01 0.40 0.13 97 1012.0
20260506093025 55 228 4.0 8.0 0.02 0.40 0.13 97 1012.0
20260506092627 55 232 4.0 8.0 0.02 0.40 0.13 97 1012.0
20260506092423 55 234 4.0 8.0 0.02 0.40 0.13 97 1012.0
20260506092246 55 234 4.0 8.0 0.02 0.40 0.13 97 1012.0
20260506092149 55 213 4.0 7.0 0.02 0.40 0.13 97 1012.0
20260506092052 55 254 4.0 7.0 0.02 0.40 0.13 97 1012.0
20260506091919 55 224 3.0 7.0 0.02 0.40 0.13 97 1012.0
20260506091758 55 246 5.0 7.0 0.02 0.41 0.13 97 1011.9
20260506091739 55 256 5.0 7.0 0.02 0.41 0.13 97 1011.9
20260506091614 54 235 2.0 7.0 0.02 0.41 0.13 97 1011.9
20260506091434 54 215 3.0 4.0 0.01 0.40 0.13 97 1012.0
20260506091340 54 221 3.0 4.0 0.01 0.40 0.13 97 1012.0
20260506091240 54 263 2.0 4.0 0.01 0.40 0.13 97 1011.9
20260506091122 54 206 3.0 4.0 0.01 0.40 0.13 97 1012.0
20260506090740 54 229 2.0 4.0 0.01 0.40 0.13 97 1011.9
20260506090552 54 223 2.0 4.0 0.01 0.40 0.13 97 1012.0
20260506090414 54 213 3.0 4.0 0.01 0.40 0.13 97 1011.9
20260506090318 54 234 2.0 4.0 0.01 0.40 0.13 97 1011.9
20260506090216 54 229 2.0 4.0 0.01 0.40 0.13 97 1011.9
20260506090044 54 221 2.0 4.0 0.01 0.40 0.13 97 1011.9
20260506085645 54 271 2.0 4.0 0.01 0.40 0.13 97 1011.9
20260506085455 54 219 2.0 4.0 0.01 0.40 0.13 97 1011.8
20260506085320 54 198 3.0 4.0 0.01 0.41 0.13 97 1011.8
20260506085220 54 230 2.0 4.0 0.01 0.41 0.13 97 1011.9
20260506084342 54 237 2.0 5.0 0.01 0.41 0.13 97 1011.9
20260506084149 54 230 2.0 5.0 0.01 0.41 0.13 97 1011.8
20260506084011 54 198 3.0 5.0 0.01 0.41 0.13 97 1011.8
20260506083915 54 223 2.0 5.0 0.01 0.41 0.13 97 1011.8
20260506083424 54 234 2.0 5.0 0.01 0.41 0.13 97 1011.8
20260506083239 54 220 2.0 6.0 0.02 0.41 0.13 97 1011.9
20260506083049 54 240 2.0 6.0 0.02 0.41 0.13 97 1011.8
20260506082911 54 241 3.0 6.0 0.02 0.41 0.13 97 1011.9
20260506082110 54 205 4.0 6.0 0.01 0.41 0.12 97 1011.9
20260506081920 54 217 3.0 6.0 0.01 0.41 0.12 97 1011.9
20260506081724 54 200 3.0 6.0 0.01 0.41 0.12 97 1011.9
20260506080951 54 261 2.0 6.0 0.01 0.41 0.12 97 1011.9
20260506080814 54 217 3.0 6.0 0.01 0.41 0.12 98 1011.9
20260506080628 54 167 3.0 6.0 0.01 0.41 0.12 98 1011.9
20260506080442 54 230 3.0 6.0 0.01 0.41 0.12 98 1011.8
20260506080307 54 242 2.0 6.0 0.01 0.41 0.12 98 1011.9
20260506080211 54 244 3.0 6.0 0.01 0.41 0.12 98 1011.8
20260506080105 54 209 3.0 6.0 0.01 0.41 0.12 98 1011.9
20260506073521 53 215 2.0 4.0 0.01 0.42 0.12 98 1011.9
20260506073320 53 249 2.0 4.0 0.01 0.42 0.12 98 1011.9
20260506073143 53 220 1.0 4.0 0.01 0.43 0.12 98 1011.9
20260506072736 53 225 1.0 4.0 0.01 0.43 0.12 98 1012.0
20260506072622 53 225 1.0 4.0 0.01 0.43 0.12 98 1012.0
20260506072443 53 301 1.0 4.0 0.01 0.42 0.12 98 1012.0
20260506072255 53 206 1.0 4.0 0.01 0.42 0.11 98 1011.9
20260506072117 53 216 0.0 3.0 0.01 0.42 0.11 98 1011.9
20260506072035 53 215 0.0 3.0 0.01 0.42 0.11 98 1011.9
20260506071930 53 198 0.0 3.0 0.01 0.42 0.11 98 1011.9
20260506071801 53 231 1.0 3.0 0.01 0.42 0.11 98 1011.9
20260506071627 53 252 1.0 3.0 0.01 0.42 0.11 98 1011.8
20260506071458 53 194 2.0 4.0 0.01 0.42 0.11 98 1011.8
20260506071015 53 308 0.0 4.0 0.01 0.42 0.11 98 1011.8
20260506070923 53 206 0.0 4.0 0.01 0.43 0.11 98 1011.8
20260506070824 53 206 2.0 4.0 0.01 0.43 0.11 98 1011.9
20260506070645 53 152 1.0 4.0 0.01 0.43 0.11 98 1011.7
20260506062342 52 201 0.0 2.0 0.01 0.43 0.10 98 1011.7
20260506061942 51 205 0.0 2.0 0.01 0.43 0.10 98 1011.8
20260506061843 51 191 1.0 2.0 0.01 0.43 0.10 98 1011.8
20260506061334 51 150 0.0 2.0 0.01 0.43 0.10 98 1011.7
20260506061152 51 193 1.0 2.0 0.01 0.43 0.10 98 1011.7
20260506060755 51 193 1.0 3.0 0.01 0.43 0.10 98 1011.7
20260506060712 51 193 0.0 3.0 0.01 0.43 0.10 98 1011.7
20260506060552 51 227 1.0 3.0 0.01 0.43 0.10 98 1011.7
20260506060420 51 216 1.0 3.0 0.01 0.43 0.10 98 1011.8
20260506051307 51 185 1.0 2.0 0.01 0.43 0.09 98 1011.3
20260506051238 51 182 1.0 2.0 0.01 0.43 0.09 98 1011.4
20260506051139 51 225 1.0 2.0 0.01 0.43 0.09 97 1011.3
20260506050610 51 227 1.0 2.0 0.01 0.43 0.09 98 1011.2
20260506050529 51 227 1.0 2.0 0.01 0.43 0.09 97 1011.2
20260506050352 51 242 0.0 2.0 0.01 0.43 0.09 97 1011.3
20260506050119 51 159 0.0 2.0 0.01 0.43 0.09 98 1011.2
20260506045052 51 313 1.0 3.0 0.01 0.44 0.09 98 1011.4
20260506044929 51 313 1.0 3.0 0.01 0.44 0.09 97 1011.5
20260506044721 51 232 1.0 3.0 0.01 0.44 0.09 97 1011.5
20260506044602 51 211 1.0 2.0 0.01 0.44 0.09 97 1011.4
20260506044511 51 211 1.0 2.0 0.01 0.44 0.09 97 1011.5
20260506044342 51 228 1.0 2.0 0.01 0.44 0.09 97 1011.5
20260506044135 51 265 1.0 2.0 0.01 0.44 0.09 97 1011.5
20260506044105 51 229 1.0 2.0 0.01 0.44 0.09 97 1011.5
20260506043957 51 180 1.0 1.0 0.01 0.44 0.09 97 1011.6
20260506043827 51 180 1.0 1.0 0.02 0.44 0.09 97 1011.5
20260506043516 58 254 2.0 9.0 0.02 0.49 0.39 78 1012.2
20260506043457 51 180 1.0 1.0 0.02 0.44 0.09 97 1011.5
20260506043337 51 180 1.0 1.0 0.02 0.44 0.09 97 1011.3
20260506043118 51 180 0.0 1.0 0.02 0.44 0.09 97 1011.3
20260506043027 51 225 0.0 0.0 0.02 0.44 0.09 97 1011.2
20260506042847 51 225 0.0 1.0 0.01 0.43 0.09 97 1011.3
20260506042506 51 225 0.0 1.0 0.01 0.43 0.09 97 1011.3
20260506042409 51 225 0.0 1.0 0.01 0.44 0.09 97 1011.4
20260506042225 51 225 0.0 1.0 0.01 0.44 0.09 97 1011.5
20260506042117 51 225 0.0 1.0 0.01 0.44 0.09 97 1011.4
20260506041929 51 239 0.0 1.0 0.01 0.44 0.09 97 1011.5
20260506041559 51 238 0.0 1.0 0.01 0.44 0.09 97 1011.6
20260506041447 51 142 0.0 1.0 0.01 0.44 0.09 97 1011.7
20260506041247 51 142 0.0 1.0 0.01 0.44 0.09 97 1011.6
20260506041143 51 142 0.0 1.0 0.01 0.44 0.09 97 1011.6
20260506041010 51 139 0.0 1.0 0.01 0.44 0.09 97 1011.7
20260506040932 51 249 0.0 0.0 0.01 0.44 0.09 97 1011.6
20260506040840 51 249 0.0 0.0 0.01 0.44 0.09 97 1011.7
20260506040410 51 249 0.0 0.0 0.01 0.44 0.09 97 1011.7
20260506035930 51 249 0.0 0.0 0.02 0.44 0.09 97 1011.8
20260506035908 51 249 0.0 0.0 0.02 0.44 0.09 97 1011.7
20260506035821 51 249 0.0 0.0 0.02 0.44 0.09 97 1011.8
20260506035728 51 249 0.0 0.0 0.02 0.45 0.09 97 1011.7
20260506035554 51 249 0.0 0.0 0.02 0.45 0.09 97 1011.8
20260506035522 51 249 0.0 0.0 0.02 0.45 0.09 97 1011.7
20260506035440 51 249 0.0 1.0 0.02 0.45 0.09 97 1011.7
20260506035134 51 249 0.0 2.0 0.02 0.45 0.09 97 1011.8
20260506035045 51 249 0.0 2.0 0.02 0.45 0.09 97 1011.8
20260506035005 51 249 0.0 2.0 0.02 0.45 0.09 97 1011.8
20260506034936 51 249 0.0 2.0 0.02 0.45 0.09 97 1011.8
20260506034859 51 249 0.0 3.0 0.02 0.45 0.09 97 1011.9
20260506034750 51 250 1.0 3.0 0.01 0.44 0.09 97 1012.0
20260506034612 51 243 1.0 3.0 0.01 0.44 0.08 97 1011.9
20260506034600 51 244 1.0 3.0 0.01 0.44 0.08 97 1011.9
20260506034412 51 267 1.0 3.0 0.01 0.44 0.08 97 1011.9
20260506034251 51 264 2.0 3.0 0.01 0.44 0.08 96 1012.0
20260506034154 51 251 1.0 3.0 0.01 0.44 0.08 97 1011.9
20260506034054 51 260 1.0 3.0 0.01 0.44 0.08 97 1011.9
20260506033933 51 237 0.0 3.0 0.01 0.44 0.08 96 1011.9
20260506033815 51 239 1.0 3.0 0.01 0.44 0.08 96 1012.0
20260506033634 51 207 1.0 6.0 0.01 0.44 0.08 96 1012.0
20260506033511 51 219 2.0 7.0 0.01 0.45 0.08 96 1011.9
20260506033425 51 216 1.0 7.0 0.01 0.45 0.08 96 1012.0
20260506032617 51 238 4.0 7.0 0.02 0.45 0.08 96 1012.1
20260506032416 51 257 3.0 7.0 0.02 0.45 0.08 96 1012.1
20260506032229 51 248 5.0 7.0 0.02 0.45 0.08 96 1012.3
20260506032139 51 284 5.0 7.0 0.02 0.45 0.08 96 1012.2
20260506032020 51 296 3.0 8.0 0.02 0.45 0.08 96 1012.3
20260506031846 51 304 3.0 8.0 0.02 0.45 0.08 96 1012.2
20260506031712 51 277 4.0 8.0 0.02 0.45 0.08 96 1012.3
20260506031656 51 288 4.0 8.0 0.02 0.45 0.08 96 1012.3
20260506031507 51 313 3.0 8.0 0.02 0.45 0.08 96 1012.3
20260506031337 51 295 4.0 8.0 0.02 0.45 0.08 96 1012.3
20260506030923 51 284 3.0 7.0 0.02 0.45 0.08 96 1012.3
20260506030739 51 313 3.0 7.0 0.01 0.44 0.07 96 1012.2
20260506030618 51 313 5.0 7.0 0.01 0.44 0.07 96 1012.2
20260506030601 51 311 5.0 7.0 0.01 0.44 0.07 96 1012.1
20260506030412 51 282 4.0 7.0 0.01 0.44 0.07 96 1012.0
20260506030236 51 276 2.0 5.0 0.01 0.45 0.07 96 1012.0
20260506030144 51 247 2.0 5.0 0.01 0.45 0.07 96 1012.0
20260506025649 51 215 2.0 5.0 0.01 0.45 0.07 96 1011.9
20260506025522 51 244 2.0 5.0 0.01 0.45 0.07 96 1011.9
20260506025111 51 260 2.0 5.0 0.02 0.45 0.07 96 1011.8
20260506024931 51 248 2.0 5.0 0.02 0.45 0.07 96 1011.9
20260506024843 51 252 3.0 5.0 0.02 0.45 0.07 96 1011.9
20260506024740 51 243 3.0 5.0 0.02 0.45 0.07 96 1011.9
20260506024556 51 237 1.0 4.0 0.02 0.45 0.07 96 1011.9
20260506024352 51 222 2.0 3.0 0.02 0.45 0.07 96 1011.9
20260506024231 51 238 1.0 3.0 0.02 0.45 0.07 96 1011.9
20260506024105 51 225 1.0 3.0 0.02 0.45 0.07 96 1011.9
20260506024019 51 225 2.0 3.0 0.02 0.45 0.07 96 1011.9
20260506023928 51 225 2.0 3.0 0.02 0.45 0.07 96 1012.0
20260506023806 51 219 2.0 3.0 0.02 0.45 0.07 96 1011.9
20260506023608 51 238 2.0 3.0 0.02 0.45 0.07 96 1011.9
20260506023454 51 221 2.0 3.0 0.02 0.46 0.07 96 1011.8
20260506023313 51 255 2.0 3.0 0.02 0.46 0.07 96 1011.9
20260506023214 51 216 2.0 3.0 0.02 0.46 0.07 96 1011.8
20260506023111 51 222 2.0 3.0 0.02 0.46 0.07 96 1011.9
20260506022933 51 207 2.0 3.0 0.01 0.45 0.06 96 1011.9
20260506022746 51 232 2.0 3.0 0.01 0.45 0.06 96 1011.9
20260506022731 51 291 2.0 3.0 0.01 0.45 0.06 96 1011.9
20260506022602 51 260 2.0 3.0 0.02 0.45 0.06 96 1011.9
20260506022432 51 230 1.0 3.0 0.02 0.45 0.06 96 1011.9
20260506022340 51 229 0.0 3.0 0.02 0.45 0.06 96 1011.8
20260506022245 51 223 0.0 3.0 0.02 0.45 0.06 96 1011.8
20260506022151 51 223 2.0 4.0 0.02 0.45 0.06 96 1011.8
20260506021433 51 220 1.0 4.0 0.02 0.45 0.06 96 1011.8
20260506021308 51 220 2.0 4.0 0.02 0.45 0.06 96 1011.8
20260506021228 51 220 2.0 4.0 0.02 0.45 0.06 96 1011.8
20260506021134 51 244 2.0 4.0 0.02 0.45 0.06 96 1011.7
20260506021000 51 228 1.0 2.0 0.02 0.45 0.06 96 1011.8
20260506020758 51 232 1.0 2.0 0.02 0.45 0.06 96 1011.8
20260506020652 51 232 1.0 2.0 0.02 0.46 0.06 96 1011.7
20260506015638 51 217 1.0 3.0 0.02 0.46 0.06 96 1011.7
20260506015454 51 234 1.0 3.0 0.02 0.46 0.06 96 1011.7
20260506015332 51 224 1.0 3.0 0.02 0.45 0.06 96 1011.8
20260506015221 51 224 2.0 3.0 0.02 0.45 0.06 96 1011.8
20260506014832 51 223 2.0 3.0 0.02 0.45 0.06 96 1011.9
20260506014110 51 227 2.0 3.0 0.02 0.45 0.06 96 1011.9
20260506013941 51 238 2.0 3.0 0.02 0.45 0.06 96 1012.0
20260506013815 51 226 2.0 3.0 0.02 0.45 0.06 96 1011.9
20260506013733 51 226 2.0 3.0 0.02 0.45 0.06 96 1012.0
20260506013612 51 235 1.0 3.0 0.02 0.45 0.06 96 1012.0
20260506013443 51 219 2.0 3.0 0.02 0.45 0.06 96 1012.0
20260506013027 51 233 2.0 3.0 0.02 0.46 0.06 96 1012.0
20260506012431 51 225 1.0 3.0 0.02 0.46 0.06 96 1012.1
20260506012400 51 240 1.0 3.0 0.02 0.46 0.06 96 1012.0
20260506012236 51 221 2.0 3.0 0.02 0.46 0.06 96 1012.0
20260506012112 51 239 2.0 3.0 0.02 0.46 0.06 96 1012.1
20260506011917 51 225 2.0 3.0 0.02 0.46 0.06 96 1012.0
20260506011849 51 236 2.0 3.0 0.02 0.46 0.06 96 1012.0
20260506011705 51 221 1.0 4.0 0.02 0.45 0.06 96 1012.0
20260506011511 51 228 1.0 4.0 0.02 0.45 0.05 96 1012.0
20260506011442 51 229 1.0 4.0 0.02 0.45 0.05 96 1012.0
20260506011353 51 257 2.0 4.0 0.02 0.45 0.05 96 1012.1
20260506011257 51 229 2.0 4.0 0.02 0.45 0.05 96 1012.1
20260506011115 51 225 2.0 4.0 0.02 0.45 0.05 96 1012.1
20260506010944 51 223 2.0 3.0 0.02 0.45 0.05 96 1012.2
20260506010758 51 219 2.0 3.0 0.02 0.45 0.05 96 1012.2
20260506010727 51 234 2.0 3.0 0.02 0.45 0.05 96 1012.3
20260506010630 52 224 1.0 5.0 0.02 0.45 0.05 96 1012.2
20260506010142 52 244 2.0 5.0 0.02 0.46 0.05 96 1012.3
20260506005743 52 263 2.0 5.0 0.02 0.46 0.05 96 1012.3
20260506005554 52 211 2.0 5.0 0.02 0.46 0.05 96 1012.3
20260506005524 52 236 2.0 5.0 0.02 0.46 0.05 96 1012.3
20260506005405 52 233 1.0 3.0 0.02 0.46 0.05 96 1012.4
20260506005227 52 222 1.0 3.0 0.02 0.46 0.05 96 1012.3
20260506005105 52 255 1.0 3.0 0.02 0.46 0.05 96 1012.3
20260506005036 52 247 1.0 3.0 0.02 0.45 0.05 96 1012.4
20260506004907 52 237 1.0 3.0 0.02 0.45 0.04 96 1012.3
20260506004739 52 244 1.0 3.0 0.02 0.45 0.04 96 1012.4
20260506004704 52 225 1.0 3.0 0.02 0.45 0.04 96 1012.4
20260506004609 52 238 2.0 3.0 0.02 0.45 0.04 96 1012.4
20260506004448 52 238 2.0 3.0 0.02 0.45 0.04 96 1012.4
20260506004325 52 222 2.0 3.0 0.02 0.45 0.04 96 1012.4
20260506004245 52 231 1.0 3.0 0.02 0.45 0.04 96 1012.4
20260506003725 52 223 2.0 3.0 0.02 0.45 0.04 96 1012.4
20260506003709 52 223 2.0 3.0 0.02 0.45 0.04 96 1012.5
20260506003554 52 217 2.0 4.0 0.02 0.46 0.04 96 1012.5
20260506003415 52 221 1.0 4.0 0.01 0.45 0.04 96 1012.5
20260506003048 52 216 3.0 8.0 0.01 0.45 0.03 96 1012.5
20260506002959 52 216 3.0 8.0 0.02 0.45 0.03 96 1012.5
20260506002855 52 216 3.0 9.0 0.02 0.45 0.03 96 1012.6
20260506002746 52 236 2.0 9.0 0.02 0.45 0.03 96 1012.6
20260506002610 52 239 3.0 9.0 0.02 0.45 0.03 96 1012.6
20260506002506 52 247 3.0 9.0 0.02 0.45 0.03 96 1012.6
20260506002024 52 265 3.0 8.0 0.02 0.45 0.03 96 1012.7
20260506001838 52 248 3.0 6.0 0.02 0.45 0.03 96 1012.7
20260506001440 52 246 2.0 4.0 0.02 0.45 0.03 96 1012.6
20260506000929 52 232 2.0 4.0 0.02 0.45 0.03 96 1012.7
20260506000839 52 244 2.0 4.0 0.02 0.45 0.03 96 1012.7
20260506000702 52 236 3.0 4.0 0.02 0.45 0.03 96 1012.7
20260506000510 52 264 2.0 4.0 0.02 0.45 0.03 96 1012.8
20260506000457 52 282 2.0 4.0 0.02 0.45 0.03 96 1012.8
20260506000330 52 222 2.0 4.0 0.02 0.46 0.03 96 1012.6
20260506000153 52 236 2.0 4.0 0.02 0.46 0.03 96 1012.7
20260506000057 52 277 2.0 4.0 0.02 0.46 0.03 96 1012.8
20260505235630 52 222 2.0 3.0 0.02 0.45 0.03 96 1012.7
20260505235342 52 228 2.0 3.0 0.02 0.45 0.02 96 1012.8
20260505235329 52 229 2.0 3.0 0.02 0.45 0.02 96 1012.8
20260505235210 52 281 2.0 3.0 0.02 0.45 0.02 96 1012.8
20260505235040 52 235 2.0 3.0 0.02 0.45 0.02 96 1012.9
20260505234856 52 231 2.0 3.0 0.02 0.45 0.02 96 1012.9
20260505234810 52 225 1.0 3.0 0.02 0.45 0.02 96 1012.8
20260505234637 52 215 1.0 2.0 0.02 0.45 0.02 96 1012.8
20260505234512 52 222 1.0 2.0 0.02 0.45 0.02 96 1012.8
20260505234452 52 222 0.0 2.0 0.02 0.45 0.02 96 1012.8
20260505234337 52 223 0.0 2.0 0.02 0.45 0.02 95 1012.8
20260505234228 52 223 1.0 2.0 0.02 0.45 0.02 96 1012.7
20260505233528 52 223 0.0 2.0 0.02 0.45 0.02 96 1012.7
20260505233304 52 223 1.0 2.0 0.02 0.46 0.02 96 1012.7
20260505233252 52 223 1.0 2.0 0.02 0.46 0.02 96 1012.8
20260505233149 52 234 1.0 2.0 0.02 0.46 0.02 95 1012.8
20260505233024 52 236 1.0 2.0 0.02 0.46 0.02 95 1012.8
20260505232837 52 252 1.0 2.0 0.02 0.46 0.02 95 1012.7
20260505232414 53 226 1.0 2.0 0.02 0.45 0.02 95 1012.7
20260505232138 53 226 1.0 2.0 0.02 0.45 0.02 95 1012.8
20260505232122 53 221 1.0 2.0 0.02 0.45 0.02 95 1012.7
20260505232006 53 219 1.0 2.0 0.02 0.45 0.02 95 1012.6
20260505231740 53 219 0.0 3.0 0.02 0.45 0.02 95 1012.7
20260505231638 53 219 1.0 3.0 0.02 0.45 0.02 95 1012.6
20260505231550 53 219 1.0 3.0 0.02 0.45 0.02 95 1012.7
20260505231330 53 219 2.0 3.0 0.02 0.45 0.02 95 1012.7
20260505231306 53 219 2.0 3.0 0.02 0.45 0.02 95 1012.7
20260505231206 53 219 2.0 3.0 0.02 0.45 0.02 95 1012.7
20260505231007 53 226 1.0 3.0 0.02 0.46 0.02 95 1012.6
20260505230942 53 239 1.0 3.0 0.02 0.46 0.02 95 1012.7
20260505230836 53 209 1.0 3.0 0.02 0.46 0.02 95 1012.8
20260505230711 53 202 2.0 3.0 0.02 0.46 0.02 95 1012.8
20260505230607 53 226 2.0 3.0 0.02 0.46 0.02 95 1012.8
20260505230538 53 236 2.0 3.0 0.02 0.46 0.02 95 1012.9
20260505230006 53 263 2.0 3.0 0.02 0.46 0.02 95 1012.9
20260505225937 53 233 1.0 3.0 0.02 0.46 0.02 95 1012.9
20260505225509 53 221 1.0 3.0 0.02 0.45 0.01 95 1012.8
20260505225305 53 221 2.0 3.0 0.02 0.45 0.01 95 1012.8
20260505225240 53 221 2.0 3.0 0.02 0.45 0.01 95 1012.9
20260505225141 53 221 2.0 3.0 0.02 0.45 0.01 95 1012.7
20260505224923 53 227 1.0 3.0 0.02 0.45 0.01 95 1012.8
20260505224854 53 227 2.0 3.0 0.02 0.45 0.01 95 1012.9
20260505224733 53 231 1.0 2.0 0.02 0.45 0.01 95 1012.9
20260505224615 53 223 2.0 2.0 0.02 0.45 0.01 95 1012.9
20260505224449 53 229 1.0 2.0 0.02 0.46 0.01 95 1012.9
20260505224414 53 229 1.0 2.0 0.02 0.46 0.01 95 1012.8
20260505224305 53 229 1.0 2.0 0.02 0.46 0.01 95 1012.8
20260505224140 53 229 1.0 2.0 0.02 0.46 0.01 94 1012.9
20260505224118 53 229 1.0 2.0 0.02 0.46 0.01 94 1012.8
20260505223652 53 228 1.0 2.0 0.02 0.46 0.01 94 1012.9
20260505223554 53 246 1.0 2.0 0.02 0.46 0.01 94 1012.9
20260505223158 53 225 1.0 2.0 0.02 0.46 0.01 94 1012.9
20260505223021 53 225 0.0 2.0 0.02 0.46 0.01 94 1012.9
20260505222330 53 225 0.0 2.0 0.02 0.45 0.00 94 1012.9
20260505222220 54 225 1.0 2.0 0.02 0.45 0.00 94 1012.9
20260505222141 54 225 1.0 2.0 0.02 0.45 0.00 94 1013.0
20260505222031 54 236 1.0 2.0 0.02 0.46 0.00 94 1012.9
20260505221916 54 239 0.0 2.0 0.02 0.46 0.00 94 1013.0
20260505221859 54 239 0.0 2.0 0.02 0.46 0.00 94 1013.0
20260505221416 54 238 1.0 3.0 0.02 0.46 0.00 94 1012.9
20260505221234 54 248 1.0 3.0 0.02 0.46 0.00 93 1012.9
20260505221206 54 234 1.0 3.0 0.02 0.46 0.00 93 1012.9
20260505221056 54 224 2.0 4.0 0.02 0.46 0.00 93 1013.0
20260505220800 54 251 2.0 4.0 0.02 0.46 0.00 93 1012.9
20260505220723 54 221 2.0 4.0 0.02 0.46 0.00 93 1013.0
20260505220618 54 223 2.0 4.0 0.02 0.46 0.00 93 1013.0
20260505220447 54 219 2.0 4.0 0.02 0.46 0.00 93 1013.0
20260505220300 54 219 2.0 4.0 0.02 0.46 0.46 93 1013.0
20260505220240 54 222 2.0 4.0 0.02 0.46 0.46 93 1013.0
20260505220104 54 223 2.0 3.0 0.02 0.46 0.46 93 1013.0
20260505215828 54 229 0.0 2.0 0.02 0.46 0.46 93 1013.1
20260505215455 54 221 0.0 2.0 0.02 0.46 0.46 93 1013.1
20260505215353 54 221 1.0 2.0 0.02 0.46 0.45 93 1013.0
20260505215150 54 223 0.0 2.0 0.02 0.46 0.45 93 1013.1
20260505215125 54 223 0.0 1.0 0.02 0.46 0.45 93 1013.1
20260505215032 54 242 0.0 0.0 0.02 0.46 0.45 93 1013.0
20260505214841 54 242 0.0 0.0 0.02 0.46 0.45 93 1013.0
20260505214821 54 242 0.0 0.0 0.02 0.46 0.45 93 1013.0
20260505214757 54 242 0.0 0.0 0.02 0.46 0.45 93 1013.1
20260505214655 54 242 0.0 0.0 0.02 0.46 0.45 93 1013.1
20260505214605 54 242 0.0 0.0 0.02 0.46 0.45 93 1013.0
20260505214206 54 242 0.0 0.0 0.02 0.46 0.45 93 1013.1
20260505214114 54 242 0.0 0.0 0.02 0.46 0.45 93 1013.0
20260505214050 54 242 0.0 0.0 0.02 0.46 0.45 93 1013.2
20260505214010 54 242 0.0 0.0 0.02 0.46 0.45 93 1013.2
20260505213834 54 242 0.0 0.0 0.02 0.46 0.45 92 1013.2
20260505213804 54 242 0.0 0.0 0.02 0.46 0.45 92 1013.2
20260505213606 54 242 0.0 0.0 0.02 0.46 0.45 92 1013.2
20260505213430 54 242 0.0 0.0 0.02 0.46 0.45 92 1013.2
20260505213403 54 242 0.0 0.0 0.02 0.46 0.45 92 1013.2
20260505213337 54 242 0.0 0.0 0.02 0.46 0.44 92 1013.3
20260505213214 54 242 0.0 1.0 0.02 0.46 0.44 92 1013.3
20260505213124 54 242 0.0 1.0 0.02 0.46 0.44 92 1013.3
20260505213039 54 242 0.0 2.0 0.02 0.46 0.44 92 1013.3
20260505212952 54 242 0.0 2.0 0.02 0.46 0.44 92 1013.2
20260505212919 54 242 0.0 2.0 0.02 0.46 0.44 92 1013.2
20260505212857 54 242 0.0 2.0 0.02 0.46 0.44 92 1013.3